This demonstration page uses our WeatherBlox Daily Observations layout. Learn more.

Left ArrowRight Arrow

39.08367, -84.50855

Hourly Observations for June 24, 2022

Temp ( °F °C ) Dew Point ( °F °C ) Humidity (%) Winds ( mph kmh ) Pressure ( in mb ) Visibility ( mi km ) Precip ( " mm )
12:53 am 00:53 Clear 62 16.7 60 15.6 93 93 Calm 29.99 1016 10 16 0.00 0.00
1:53 am 01:53 Clear 60 15.6 59 15 96 96 Calm 29.99 1016 10 16 0.00 0.00
2:53 am 02:53 Clear 58 14.4 58 14.4 100 100 Calm 29.99 1016 9 14 0.00 0.00
3:49 am 03:49 Clear with Mist and Fog 57 14 57 14 100 100 Calm 30.00 1016 2 3 0.00 0.00
3:53 am 03:53 Clear with Mist and Fog 59 15 58 14.4 96 96 Calm 29.99 1016 2 2 0.00 0.00
3:58 am 03:58 Clear with Mist and Fog 58 14.4 58 14.4 100 100 Calm 30.00 1016 3 5 0.00 0.00
4:05 am 04:05 Clear with Mist and Fog 58 14.4 58 14.4 100 100 Calm 30.00 1016 2 3 0.00 0.00
4:17 am 04:17 Clear with Mist and Fog 58 14.4 58 14.4 100 100 Calm 30.00 1016 4 6 0.00 0.00
4:26 am 04:26 Clear with Mist and Fog 58 14.4 58 14.4 100 100 Calm 30.00 1016 1 1 0.00 0.00
4:36 am 04:36 Clear with Mist and Fog 57 13.9 56 13.3 96 96 Calm 30.01 1016 3 5 0.00 0.00
4:53 am 04:53 Clear with Mist and Fog 57 13.9 57 13.9 100 100 Calm 30.00 1016 6 10 0.00 0.00
5:10 am 05:10 Clear with Mist and Fog 56 13.3 56 13.3 100 100 NE 3 6 30.01 1016 2 2 0.00 0.00
5:20 am 05:20 Clear with Mist and Fog 58 14.4 57 13.9 97 97 Calm 30.01 1016 3 5 0.00 0.00
5:51 am 05:51 Clear with Mist and Fog 55 13 55 13 100 100 Calm 30.03 1017 1 2 0.00 0.00
5:53 am 05:53 Clear with Mist and Fog 56 13.3 56 13.3 100 100 Calm 30.01 1016 1 1 0.00 0.00
6:02 am 06:02 Clear with Mist and Fog 56 13.3 56 13.3 100 100 Calm 30.03 1017 2 3 0.00 0.00
6:09 am 06:09 Clear 57 13.9 56 13.3 96 96 Calm 30.03 1017 10 16 0.00 0.00
6:53 am 06:53 Sunny 56 13.3 56 13.3 100 100 Calm 30.03 1017 10 16 0.00 0.00
7:53 am 07:53 Sunny 62 16.7 59 15 90 90 Calm 30.05 1018 10 16 0.00 0.00
8:53 am 08:53 Sunny 68 20 58 14.4 70 70 NE 5 7 30.06 1018 10 16 0.00 0.00
9:53 am 09:53 Sunny 73 22.8 61 16.1 66 66 Calm 30.07 1018 10 16 0.00 0.00
10:53 am 10:53 Sunny 76 24.4 61 16.1 60 60 Calm 30.06 1018 10 16 0.00 0.00
11:53 am 11:53 Sunny 82 27.8 60 15.6 47 47 Calm 30.07 1018 10 16 0.00 0.00
12:53 pm 12:53 Sunny 84 28.9 60 15.6 44 44 NE 6 9 30.06 1018 10 16 0.00 0.00
1:53 pm 13:53 Sunny 85 29.4 57 13.9 39 39 NE 6 9 30.06 1018 10 16 0.00 0.00
2:53 pm 14:53 Sunny 85 29.4 53 11.7 33 33 Calm 30.04 1017 10 16 0.00 0.00
3:53 pm 15:53 Sunny 85 29.4 57 13.9 39 39 SSW 3 6 30.03 1017 10 16 0.00 0.00
4:53 pm 16:53 Sunny 87 30.6 57 13.9 36 36 Calm 30.02 1017 10 16 0.00 0.00
5:53 pm 17:53 Sunny 85 29.4 58 14.4 40 40 Calm 30.02 1017 10 16 0.00 0.00
6:53 pm 18:53 Sunny 85 29.4 62 16.7 46 46 SSE 3 6 30.01 1016 10 16 0.00 0.00
7:53 pm 19:53 Sunny 79 26.1 63 17.2 58 58 SE 5 7 30.02 1017 10 16 0.00 0.00
8:53 pm 20:53 Sunny 74 23.3 65 18.3 74 74 Calm 30.03 1017 10 16 0.00 0.00
9:53 pm 21:53 Clear 67 19.4 63 17.2 87 87 Calm 30.03 1017 10 16 0.00 0.00
10:53 pm 22:53 Clear 66 18.9 62 16.7 87 87 Calm 30.04 1017 10 16 0.00 0.00
11:53 pm 23:53 Clear 63 17.2 61 16.1 93 93 Calm 30.04 1017 10 16 0.00 0.00

Powered by AerisWeather